Location: Coupvray
(48.8929°N, 2.7967°E)
Time: 09:36:31
(UTC+00:00)

CZ-2D R/B - Pass Details

Date: 14 July 2020
Orbit: 553 x 639 km, 97.9° (Epoch: 05 August)

Event Time Altitude Azimuth Distance (km) Brightness Sun altitude
Rises 02:37:13 0° 18° (NNE) 2,936 8.5 -10.7°
Reaches altitude 10° 02:39:32 10° 24° (NNE) 2,014 7.6 -10.5°
Maximum altitude 02:43:46 48° 99° (E) 817 4.4 -10.1°
Drops below altitude 10° 02:47:53 10° 174° (S) 1,953 5.7 -9.6°
Enters shadow 02:49:02 - 178° (S) 2,410 6.2 -9.5°
